Weather History for KSJX - May, 2014

Change the Weather History Date:

Sunday, May 4, 2014

  Actual Average Record
Temperature  
Mean Temperature 37 °F -  
Max Temperature 45 °F 56 °F 72 °F (1980)
Min Temperature 29 °F 36 °F 25 °F (1966)
Degree Days  
Heating Degree Days 28    
Moisture  
Dew Point 33 °F    
Average Humidity 81    
Maximum Humidity 96    
Minimum Humidity 65    
Precipitation  
Precipitation 0.00 in - - ()
Sea Level Pressure  
Sea Level Pressure 29.94 in    
Wind  
Wind Speed 6 mph (WNW)    
Max Wind Speed 13 mph    
Max Gust Speed 21 mph    
Visibility 10 miles    
Events Rain    
Averages and records for this station are not official NWS values.
T = Trace of Precipitation, MM = Missing Value Source: NWS Daily Summary

Daily Weather History Graph

Daily Weather History Graph

Search for Another Location

Airport or City:

Trip Planner

Search our weather history database for the weather conditions in past years. The results will help you decide how hot, cold, wet, or windy it might be!

Date:

Astronomy

May. 04, 2014 Rise Set
Actual Time 6:25 AM EDT 8:53 PM EDT
Civil Twilight 5:52 AM EDT 9:26 PM EDT
Nautical Twilight 5:10 AM EDT 10:08 PM EDT
Astronomical Twilight 4:23 AM EDT 10:56 PM EDT
Moon 10:47 AM EDT (5/4) 12:59 AM EDT (5/4)
Length of Visible Light 15h 34m
Length of Day
14h 27m
Waxing Crescent, 27% of the Moon is Illuminated
May 4
Waxing Crescent
May 6
First Quarter
May 14
Full
May 21
Last Quarter
May 28
New

Hourly Weather History & Observations

Time (EDT) Temp. Windchill Dew Point Humidity Pressure Visibility Wind Dir Wind Speed Gust Speed Precip Events Conditions
12:16 AM 34.7 °F 29.6 °F 32.2 °F 91% 29.78 in 10.0 mi WSW 5.8 mph - N/A   Clear
12:37 AM 34.7 °F 30.6 °F 32.0 °F 90% 29.78 in 10.0 mi WSW 4.6 mph - N/A   Clear
12:56 AM 34.2 °F 30.0 °F 32.0 °F 92% 29.78 in 10.0 mi WSW 4.6 mph - N/A   Clear
1:17 AM 34.9 °F 32.0 °F 32.0 °F 89% 29.78 in 10.0 mi WSW 3.5 mph - N/A   Clear
1:36 AM 33.8 °F 30.8 °F 31.1 °F 90% 29.78 in 10.0 mi WSW 3.5 mph - N/A   Clear
1:56 AM 32.5 °F - 30.7 °F 93% 29.78 in 10.0 mi Calm Calm - N/A   Clear
2:17 AM 32.0 °F - 30.2 °F 93% 29.78 in 10.0 mi Calm Calm - N/A   Clear
2:36 AM 31.8 °F - 29.7 °F 92% 29.78 in 10.0 mi Calm Calm - N/A   Clear
2:56 AM 30.2 °F - 28.9 °F 95% 29.78 in 7.0 mi Calm Calm - N/A   Clear
3:16 AM 30.9 °F - 30.0 °F 96% 29.78 in 5.0 mi Calm Calm - N/A   Clear
3:36 AM 29.5 °F 24.5 °F 28.6 °F 96% 29.77 in 10.0 mi SW 4.6 mph - N/A   Mostly Cloudy
3:56 AM 34.2 °F 30.0 °F 33.1 °F 96% 29.78 in 10.0 mi WSW 4.6 mph - N/A   Overcast
4:16 AM 34.0 °F 28.8 °F 32.0 °F 92% 29.79 in 10.0 mi West 5.8 mph - N/A   Overcast
4:37 AM 36.7 °F 32.0 °F 32.0 °F 83% 29.80 in 10.0 mi WNW 5.8 mph - N/A   Overcast
4:56 AM 38.1 °F 32.9 °F 31.8 °F 78% 29.82 in 10.0 mi West 6.9 mph - N/A   Overcast
5:16 AM 35.6 °F 30.7 °F 32.7 °F 89% 29.82 in 10.0 mi WNW 5.8 mph - N/A Rain Light Rain
5:37 AM 36.9 °F 30.7 °F 33.6 °F 88% 29.82 in 10.0 mi West 8.1 mph - N/A   Drizzle
5:56 AM 36.5 °F 31.0 °F 33.8 °F 90% 29.83 in 10.0 mi West 6.9 mph - N/A Rain Light Rain
6:16 AM 36.1 °F 30.6 °F 33.8 °F 91% 29.84 in 7.0 mi West 6.9 mph - N/A Rain Light Rain
6:36 AM 36.3 °F 30.8 °F 33.8 °F 91% 29.85 in 7.0 mi West 6.9 mph - N/A Rain Light Rain
6:56 AM 37.0 °F 31.6 °F 33.1 °F 86% 29.84 in 10.0 mi West 6.9 mph - N/A Rain Light Rain
7:17 AM 36.5 °F 31.0 °F 33.3 °F 88% 29.86 in 10.0 mi West 6.9 mph - N/A   Overcast
7:36 AM 37.4 °F 31.4 °F 33.6 °F 86% 29.86 in 10.0 mi West 8.1 mph - N/A   Overcast
7:57 AM 37.4 °F 31.4 °F 34.0 °F 87% 29.87 in 10.0 mi West 8.1 mph - N/A   Overcast
8:17 AM 37.6 °F 31.0 °F 34.2 °F 87% 29.87 in 10.0 mi West 9.2 mph - N/A   Overcast
8:36 AM 39.2 °F 33.6 °F 34.5 °F 83% 29.88 in 10.0 mi West 8.1 mph - N/A   Scattered Clouds
8:57 AM 40.1 °F 34.7 °F 33.8 °F 78% 29.88 in 10.0 mi West 8.1 mph - N/A   Clear
9:16 AM 40.3 °F 34.4 °F 32.0 °F 72% 29.89 in 10.0 mi WNW 9.2 mph - N/A   Clear
9:36 AM 40.8 °F 35.0 °F 32.0 °F 71% 29.89 in 10.0 mi West 9.2 mph - N/A   Clear
9:57 AM 41.7 °F 36.1 °F 31.8 °F 68% 29.90 in 10.0 mi WNW 9.2 mph - N/A   Clear
10:16 AM 41.9 °F 36.3 °F 31.6 °F 67% 29.91 in 10.0 mi WNW 9.2 mph - N/A   Clear
10:36 AM 43.0 °F 37.7 °F 32.0 °F 65% 29.91 in 10.0 mi WNW 9.2 mph - N/A   Clear
10:57 AM 43.9 °F 38.8 °F 32.7 °F 65% 29.93 in 10.0 mi WNW 9.2 mph - N/A   Scattered Clouds
11:16 AM 43.0 °F 37.7 °F 32.5 °F 67% 29.94 in 10.0 mi WNW 9.2 mph 17.3 mph N/A   Mostly Cloudy
11:37 AM 44.1 °F 39.5 °F 32.9 °F 65% 29.95 in 10.0 mi WNW 8.1 mph - N/A   Overcast
11:56 AM 42.6 °F 37.2 °F 32.9 °F 68% 29.96 in 10.0 mi WNW 9.2 mph - N/A   Overcast
12:16 PM 41.4 °F 35.7 °F 33.6 °F 74% 29.97 in 10.0 mi WNW 9.2 mph 17.3 mph N/A   Overcast
12:37 PM 41.9 °F 36.3 °F 34.3 °F 75% 29.98 in 10.0 mi West 9.2 mph - N/A   Overcast
12:56 PM 45.3 °F 39.7 °F 36.3 °F 71% 29.98 in 10.0 mi West 11.5 mph 16.1 mph N/A   Overcast
1:17 PM 44.8 °F 39.9 °F 35.2 °F 69% 29.98 in 10.0 mi West 9.2 mph - N/A   Overcast
1:36 PM 44.1 °F 37.7 °F 35.6 °F 72% 29.99 in 10.0 mi WSW 12.7 mph 20.7 mph N/A   Overcast
1:56 PM 44.1 °F 38.1 °F 35.6 °F 72% 29.99 in 10.0 mi WSW 11.5 mph - N/A   Overcast
2:17 PM 43.3 °F 37.2 °F 35.4 °F 74% 30.00 in 10.0 mi WSW 11.5 mph - N/A   Overcast
2:36 PM 43.0 °F 36.8 °F 35.4 °F 75% 30.00 in 10.0 mi WSW 11.5 mph - N/A   Overcast
2:57 PM 44.1 °F 39.5 °F 34.5 °F 69% 30.01 in 10.0 mi WNW 8.1 mph 16.1 mph N/A   Overcast
3:16 PM 45.0 °F 39.3 °F 34.5 °F 67% 30.02 in 10.0 mi West 11.5 mph 18.4 mph N/A   Overcast
3:36 PM 44.8 °F 39.9 °F 34.3 °F 67% 30.02 in 10.0 mi West 9.2 mph - N/A   Overcast
3:57 PM 44.1 °F 38.6 °F 33.8 °F 67% 30.02 in 10.0 mi WNW 10.4 mph 16.1 mph N/A   Overcast
4:16 PM 43.7 °F 37.7 °F 33.8 °F 68% 30.03 in 10.0 mi West 11.5 mph 19.6 mph N/A   Overcast
4:36 PM 43.7 °F 38.6 °F 33.8 °F 68% 30.04 in 10.0 mi West 9.2 mph 16.1 mph N/A   Overcast
4:57 PM 43.7 °F 38.6 °F 33.8 °F 68% 30.04 in 10.0 mi West 9.2 mph - N/A   Overcast
5:16 PM 43.3 °F 36.8 °F 33.4 °F 68% 30.05 in 10.0 mi West 12.7 mph 16.1 mph N/A   Overcast
5:37 PM 43.2 °F 37.9 °F 33.8 °F 70% 30.06 in 10.0 mi WNW 9.2 mph - N/A   Overcast
5:56 PM 42.3 °F 36.8 °F 33.4 °F 71% 30.06 in 10.0 mi WNW 9.2 mph 20.7 mph N/A   Overcast
6:16 PM 41.9 °F 36.3 °F 34.0 °F 73% 30.07 in 10.0 mi WNW 9.2 mph 18.4 mph N/A   Overcast
6:37 PM 40.6 °F 34.3 °F 34.2 °F 78% 30.06 in 10.0 mi WNW 10.4 mph 19.6 mph N/A   Overcast
6:56 PM 40.6 °F 36.0 °F 34.2 °F 78% 30.06 in 10.0 mi WNW 6.9 mph - N/A   Overcast
7:17 PM 39.9 °F 33.9 °F 34.0 °F 79% 30.06 in 10.0 mi NW 9.2 mph - N/A   Mostly Cloudy
7:37 PM 39.2 °F 33.6 °F 34.0 °F 82% 30.06 in 10.0 mi NW 8.1 mph - N/A   Mostly Cloudy
7:56 PM 37.8 °F 31.8 °F 33.4 °F 84% 30.06 in 10.0 mi WNW 8.1 mph - N/A   Overcast
8:17 PM 37.4 °F 33.8 °F 33.8 °F 87% 30.07 in 10.0 mi WNW 4.6 mph - N/A   Overcast
8:36 PM 36.9 °F 31.4 °F 33.8 °F 89% 30.08 in 10.0 mi NW 6.9 mph - N/A   Overcast
8:56 PM 36.7 °F 31.2 °F 33.8 °F 89% 30.08 in 10.0 mi WNW 6.9 mph - N/A   Overcast
9:17 PM 36.5 °F 31.8 °F 34.0 °F 91% 30.09 in 10.0 mi WNW 5.8 mph - N/A   Overcast
9:36 PM 36.7 °F 31.2 °F 34.2 °F 91% 30.09 in 10.0 mi NW 6.9 mph - N/A   Overcast
9:57 PM 36.7 °F 32.0 °F 34.2 °F 91% 30.10 in 10.0 mi NW 5.8 mph - N/A   Overcast
10:17 PM 36.5 °F 32.7 °F 34.2 °F 91% 30.10 in 10.0 mi NNW 4.6 mph - N/A   Overcast
10:36 PM 36.5 °F 33.9 °F 34.0 °F 91% 30.10 in 10.0 mi NW 3.5 mph - N/A   Overcast
10:57 PM 36.5 °F 32.7 °F 34.0 °F 91% 30.10 in 10.0 mi NNW 4.6 mph - N/A   Overcast
11:16 PM 36.5 °F 31.8 °F 34.0 °F 91% 30.11 in 10.0 mi NNW 5.8 mph - N/A   Overcast
11:36 PM 36.0 °F 32.1 °F 33.8 °F 92% 30.11 in 10.0 mi NNW 4.6 mph - N/A   Overcast
11:57 PM 35.6 °F 32.8 °F 33.6 °F 92% 30.11 in 10.0 mi NNW 3.5 mph - N/A   Overcast